Fryeburg, ME

1:32 PM EDT on May 28, 2017 (GMT -0400)
Eastern Slopes Regional

Weather History for KIZG - June, 2013

Change the Weather History Date:

Wednesday, June 19, 2013

  Actual Average Record
Temperature  
Mean Temperature 57 °F -  
Max Temperature 75 °F 77 °F 91 °F (2001)
Min Temperature 41 °F 50 °F 39 °F (1999)
Degree Days  
Heating Degree Days 8    
Growing Degree Days 7 (Base 50)    
Moisture  
Dew Point 44 °F    
Average Humidity 84    
Maximum Humidity 100    
Minimum Humidity 28    
Precipitation  
Precipitation 0.00 in - - ()
Sea Level Pressure  
Sea Level Pressure 29.99 in    
Wind  
Wind Speed 1 mph (NW)    
Max Wind Speed 12 mph    
Max Gust Speed -    
Visibility 5 miles    
Events Fog    
Averages and records for this station are not official NWS values.
T = Trace of Precipitation, MM = Missing Value Source: NWS Daily Summary

Daily Weather History Graph

Daily Weather History Graph

Search for Another Location

Airport or City:

Trip Planner

Search our weather history database for the weather conditions in past years. The results will help you decide how hot, cold, wet, or windy it might be!

Date:

Astronomy

Jun. 19, 2013 Rise Set
Actual Time 5:00 AM EDT 8:29 PM EDT
Civil Twilight 4:24 AM EDT 9:06 PM EDT
Nautical Twilight 3:36 AM EDT 9:53 PM EDT
Astronomical Twilight 2:35 AM EDT 10:55 PM EDT
Moon 4:13 PM EDT (6/19) 1:50 AM EDT (6/19)
Length of Visible Light 16h 41m
Length of Day
15h 29m
Waxing Gibbous, 80% of the Moon is Illuminated
Jun 19
Waxing Gibbous
Jun 23
Full
Jun 30
Last Quarter
Jul 8
New
Jul 15
First Quarter

Hourly Weather History & Observations

Time (EDT) Temp. Windchill Dew Point Humidity Pressure Visibility Wind Dir Wind Speed Gust Speed Precip Events Conditions
12:04 AM 50.0 °F - 48.2 °F 94% 29.95 in 10.0 mi Calm Calm - N/A   Scattered Clouds
12:33 AM 48.2 °F - 48.2 °F 100% 29.96 in 1.8 mi Calm Calm - N/A   Clear
12:41 AM 48.2 °F - 46.4 °F 93% 29.95 in 2.0 mi Calm Calm - N/A   Partly Cloudy
12:51 AM 46.4 °F - 46.4 °F 100% 29.95 in 1.2 mi Calm Calm - N/A   Partly Cloudy
12:54 AM 46.9 °F - 46.9 °F 100% 29.96 in 1.2 mi WNW 3.5 mph - N/A   Scattered Clouds
1:00 AM 46.4 °F - 46.4 °F 100% 29.95 in 2.0 mi Calm Calm - N/A   Scattered Clouds
1:19 AM 50.0 °F - 48.2 °F 94% 29.96 in 7.0 mi Calm Calm - N/A   Scattered Clouds
1:54 AM 46.9 °F - 46.0 °F 97% 29.96 in 6.0 mi Calm Calm - N/A   Partly Cloudy
2:08 AM 46.4 °F - 46.4 °F 100% 29.96 in 2.5 mi Calm Calm - N/A   Mostly Cloudy
2:11 AM 46.4 °F - 46.4 °F 100% 29.96 in 1.2 mi Calm Calm - N/A   Mostly Cloudy
2:19 AM 44.6 °F 43.1 °F 44.6 °F 100% 29.96 in 0.5 mi West 3.5 mph - N/A Fog Fog
2:25 AM 46.4 °F 45.2 °F 44.6 °F 93% 29.95 in 1.8 mi West 3.5 mph - N/A   Mostly Cloudy
2:27 AM 46.4 °F 45.2 °F 44.6 °F 93% 29.95 in 4.0 mi West 3.5 mph - N/A   Mostly Cloudy
2:34 AM 44.6 °F 43.1 °F 44.6 °F 100% 29.96 in 7.0 mi West 3.5 mph - N/A   Scattered Clouds
2:54 AM 44.1 °F - 44.1 °F 100% 29.96 in 3.0 mi Calm Calm - N/A   Clear
2:57 AM 44.6 °F - 44.6 °F 100% 29.95 in 1.8 mi Calm Calm - N/A   Clear
3:18 AM 44.6 °F - 42.8 °F 93% 29.95 in 4.0 mi Calm Calm - N/A   Clear
3:43 AM 44.6 °F - 42.8 °F 93% 29.95 in 1.2 mi Calm Calm - N/A   Clear
3:52 AM 42.8 °F - 42.8 °F 100% 29.96 in 0.5 mi Calm Calm - N/A Fog Fog
3:54 AM 42.1 °F - 42.1 °F 100% 29.96 in 0.8 mi Calm Calm - N/A   Clear
3:58 AM 42.8 °F - 42.8 °F 100% 29.96 in 1.0 mi Calm Calm - N/A   Mist
4:10 AM 42.8 °F - 42.8 °F 100% 29.96 in 1.5 mi Calm Calm - N/A   Partly Cloudy
4:18 AM 42.8 °F - 42.8 °F 100% 29.96 in 1.0 mi Calm Calm - N/A   Mist
4:28 AM 41.0 °F - 41.0 °F 100% 29.97 in 0.5 mi Calm Calm - N/A Fog Fog
4:43 AM 42.8 °F - 42.8 °F 100% 29.97 in 1.2 mi Calm Calm - N/A   Scattered Clouds
4:50 AM 41.0 °F - 41.0 °F 100% 29.97 in 0.8 mi Calm Calm - N/A   Mist
4:54 AM 41.0 °F - 39.9 °F 96% 29.98 in 0.5 mi Calm Calm - N/A Fog Fog
5:08 AM 41.0 °F - 39.2 °F 93% 29.97 in 1.2 mi Calm Calm - N/A   Partly Cloudy
5:10 AM 41.0 °F - 39.2 °F 93% 29.97 in 2.0 mi Calm Calm - N/A   Partly Cloudy
5:17 AM 42.8 °F - 41.0 °F 93% 29.98 in 10.0 mi Calm Calm - N/A   Partly Cloudy
5:23 AM 41.0 °F - 39.2 °F 93% 29.98 in 0.8 mi Calm Calm - N/A   Clear
5:26 AM 41.0 °F - 39.2 °F 93% 29.98 in 0.2 mi Calm Calm - N/A Fog Fog
5:38 AM 42.8 °F - 42.8 °F 100% 29.98 in 1.0 mi Calm Calm - N/A   Mist
5:40 AM 42.8 °F - 42.8 °F 100% 29.98 in 1.5 mi Calm Calm - N/A   Partly Cloudy
5:42 AM 42.8 °F - 42.8 °F 100% 29.98 in 3.0 mi Calm Calm - N/A   Partly Cloudy
5:54 AM 43.0 °F - 43.0 °F 100% 29.99 in 10.0 mi Calm Calm - N/A   Partly Cloudy
6:07 AM 44.6 °F - 44.6 °F 100% 29.99 in 1.8 mi Calm Calm - N/A   Clear
6:15 AM 46.4 °F - 44.6 °F 93% 29.99 in 1.2 mi Calm Calm - N/A   Clear
6:19 AM 46.4 °F - 46.4 °F 100% 29.99 in 2.5 mi Calm Calm - N/A   Clear
6:26 AM 46.4 °F - 46.4 °F 100% 29.99 in 10.0 mi Calm Calm - N/A   Clear
6:54 AM 48.0 °F - 48.0 °F 100% 30.00 in 10.0 mi Calm Calm - N/A   Clear
7:54 AM 57.0 °F - 51.1 °F 81% 30.00 in 10.0 mi Calm Calm - N/A   Clear
8:54 AM 62.1 °F - 50.0 °F 65% 30.01 in 10.0 mi Variable 3.5 mph - N/A   Clear
9:54 AM 66.0 °F - 48.0 °F 52% 30.01 in 10.0 mi Variable 5.8 mph - N/A   Clear
10:54 AM 68.0 °F - 42.1 °F 39% 30.03 in 10.0 mi NNW 11.5 mph - N/A   Clear
11:54 AM 70.0 °F - 41.0 °F 35% 30.03 in 10.0 mi NNE 4.6 mph - N/A   Clear
12:54 PM 71.1 °F - 39.9 °F 32% 30.03 in 10.0 mi Variable 5.8 mph - N/A   Clear
1:54 PM 73.0 °F - 41.0 °F 31% 30.02 in 10.0 mi Variable 4.6 mph - N/A   Clear
2:54 PM 73.0 °F - 39.0 °F 29% 30.01 in 10.0 mi Variable 3.5 mph - N/A   Clear
3:54 PM 73.0 °F - 37.9 °F 28% 30.02 in 10.0 mi Calm Calm - N/A   Clear
4:54 PM 72.0 °F - 39.9 °F 31% 30.04 in 10.0 mi NNE 8.1 mph - N/A   Clear
5:54 PM 73.0 °F - 39.9 °F 30% 30.04 in 10.0 mi North 5.8 mph - N/A   Partly Cloudy
6:54 PM 71.1 °F - 42.1 °F 35% 30.06 in 10.0 mi North 5.8 mph - N/A   Partly Cloudy
7:54 PM 66.9 °F - 43.0 °F 42% 30.08 in 10.0 mi North 3.5 mph - N/A   Clear
8:54 PM 60.1 °F - 44.1 °F 55% 30.10 in 10.0 mi NW 4.6 mph - N/A   Clear
9:54 PM 54.0 °F - 46.0 °F 75% 30.14 in 10.0 mi WNW 4.6 mph - N/A   Clear
10:54 PM 48.9 °F - 46.0 °F 90% 30.15 in 10.0 mi WNW 3.5 mph - N/A   Clear
11:54 PM 46.9 °F - 45.0 °F 93% 30.17 in 10.0 mi Calm Calm - N/A   Clear